Regional Weather Roundup
Issued by NWS Upton, NY

Current Version | Previous Version | Text Only | Print | Product List | Glossary On
Versions: 1 2 3 4 5 6 7 8 9 10 11 12 13 14 15 16 17 18 19 20 21 22 23 24 25 26 27 28 29 30 31 32 33 34 35 36 37 38 39 40 41 42 43 44 45 46 47 48 49 50
000
ASUS41 KOKX 021318
RWROKX

REGIONAL WEATHER ROUNDUP
NATIONAL WEATHER SERVICE NEW YORK NY
900 AM EDT THU JUL 02 2015

NOTE: "FAIR" INDICATES FEW OR NO CLOUDS BELOW 12,000 FEET WITH NO
SIGNIFICANT WEATHER AND/OR OBSTRUCTIONS TO VISIBILITY.

NYZ071-072-176-178-NJZ106-104-021400-
NEW YORK CITY METRO AREA


CITY           SKY/WX    TMP DP  RH WIND       PRES   REMARKS
CENTRAL PARK   MOSUNNY   72  57  59 VRB3      29.94R
LAGUARDIA APRT PTSUNNY   72  58  61 NW5       29.90R
KENNEDY INTL   PTSUNNY   77  54  44 CALM      29.92R
NEWARK/LIBERTY PTSUNNY   73  57  57 N7        29.92R
BRNX BOT. GARD   N/A     72  59  64 NW2       29.91F
TETERBORO      MOSUNNY   72  57  59 NW5       29.90S
$$

NYZ177-179-078>081-021400-
LONG ISLAND NEW YORK

CITY           SKY/WX    TMP DP  RH WIND       PRES   REMARKS
FARMINGDALE    MOSUNNY   73  58  59 N3        29.91R
ISLIP          CLOUDY    74  60  61 NW5       29.90R
SHIRLEY        MOSUNNY   74  59  59 CALM      29.91R
WESTHAMPTON    MOSUNNY   75  61  61 N3        29.92R
MONTAUK POINT    N/A     74  61  63 CALM      29.93R
$$

NYZ052-065-067-021400-
HUDSON VALLEY

CITY           SKY/WX    TMP DP  RH WIND       PRES   REMARKS
WHITE PLAINS   MOSUNNY   71  59  65 W3        29.92R
NEWBURGH       NOT AVBL
MONTGOMERY     MOSUNNY   70  58  65 NW7       29.92R
POUGHKEEPSIE   MOSUNNY   71  59  65 NE8       29.91R
ALBANY         PTSUNNY   68  56  65 W9        29.92R
$$

NJZ001-105-106-008-010-013-015-019>022-104-021400-
NEW JERSEY

CITY           SKY/WX    TMP DP  RH WIND       PRES   REMARKS
NEWARK/LIBERTY PTSUNNY   73  57  57 N7        29.92R
TETERBORO      MOSUNNY   72  57  59 NW5       29.90S
CALDWELL       MOSUNNY   71  58  63 CALM      29.93R
MORRISTOWN     MOSUNNY   73  64  73 CALM      29.93R
SOMERVILLE     PTSUNNY   68  63  84 CALM      29.91R
SUSSEX         MOSUNNY   68  58  70 CALM      29.93R
ANDOVER          N/A     68  59  73 NE3       29.94R
TRENTON        PTSUNNY   72  61  68 NE6       29.91S
MILLVILLE      PTSUNNY   73  65  75 NE6       29.90S
ATLANTIC CITY  PTSUNNY   73  66  78 NE7       29.90S
WRIGHTSTOWN    PTSUNNY   70  64  82 E3        29.90R
TOMS RIVER     MOSUNNY   70  63  78 CALM      29.91F
BELMAR         MOSUNNY   72  57  60 N6        29.91S
$$

PAZ047>061-062-071-021400-
EASTERN PENNSYLVANIA

CITY           SKY/WX    TMP DP  RH WIND       PRES   REMARKS
PHILADELPHIA   CLOUDY    73  61  65 NE3       29.91S
ALLENTOWN      SUNNY     71  62  73 CALM      29.93R
SCRANTON       MOSUNNY   67  58  72 CALM      29.95R
$$

CTZ002-004>006-009-010-012-RIZ004-006-007-MAZ004-011-015-021400-
SOUTHERN NEW ENGLAND
 IN CT

CITY           SKY/WX    TMP DP  RH WIND       PRES   REMARKS
BRADLEY INTL   PTSUNNY   70  58  65 N3        29.91R
HARTFORD       SUNNY     71  58  63 VRB6      29.91R
DANBURY        SUNNY     71  57  61 CALM      29.93R
WTRBRY/OXFORD  MOSUNNY   68  55  64 NE6       29.95R
BRIDGEPORT     MOSUNNY   71  60  68 CALM      29.91R
MERIDEN        SUNNY     72  57  59 N6        29.91R
NEW HAVEN      MOSUNNY   71  62  73 S3        29.91R
CHESTER        FAIR      72  57  60 N6        29.93R
GROTON         MOSUNNY   74  59  59 N5        29.90S
WILLIMANTIC    MOSUNNY   70  58  65 NW8       29.91R

 IN RI

CITY           SKY/WX    TMP DP  RH WIND       PRES   REMARKS
PROVIDENCE     PTSUNNY   72  59  63 W5        29.90R
BLOCK ISLAND   SUNNY     73  61  64 W3        29.92R
WESTERLY       MOSUNNY   74  59  59 N3        29.91R

 IN MA

CITY           SKY/WX    TMP DP  RH WIND       PRES   REMARKS
BOSTON         PTSUNNY   71  56  58 W12       29.88R
WORCESTER      MOSUNNY   67  56  67 W12       29.91R
WESTFIELD      MOSUNNY   70  55  59 NW8       29.90S
PROVINCETOWN   SUNNY     72  12  10 SW10      29.89R
NANTUCKET      SUNNY     72  64  76 SW6       29.91R
$$

ANZ330-335-338-340-345-350-353-355-021400-
COASTAL MARINE OBSERVATIONS


STATION/POSITION TIME  SKY/WX   TEMP    WIND        PRES    VSBY  WAVE
                                AIR SEA DIR/SP/G                  HT/PER
                 (UTC)          (F)     (DEG/KT/KT) (MB)    (MI)  (FT/S)
NY HARB ENTRANCE 1250            71 70  310/  2/  4 1012.5          4/ 8
4S FIRE IS       1203               69                N/A           4/ 8
20S FIRE ISLAND  1250            69 67   CALM  /  2 1012.5          4/ 7
GREAT SOUTH BAY  1230            72 74  350/  2/  4   N/A
23SW MTP         1250            68 67  300/  4/  6 1012.5          5/ 8
HUDSON CANYON    NOT AVBL
KINGS POINT      1200            71 68   30/  3/  4 1011.9
CENTRAL LI SOUND NOT AVBL
EASTERN LI SOUND 1200            66 64  140/  2/  4   N/A
ROBBINS REEF     1200            70     350/  6/  8 1011.5
$$


>>>>>>>>>>>>>>>>>>>>>>>>>>>> KEY <<<<<<<<<<<<<<<<<<<<<<<<<<<
>                                                          <
>     SKY/WX - SKY CONDITION/PRESENT WEATHER               <
>     TMP    - TEMPERATURE IN FAHRENHEIT                   <
>     DP     - DEWPOINT IN FAHRENHEIT                      <
>     RH     - RELATIVE HUMIDITY IN PERCENT                <
>     WIND   - DIRECTION AND SPEED IN MPH                  <
>     PRES   - MEAN SEA LEVEL PRESSURE IN INCHES OF HG     <
>     WCI    - WIND CHILL INDEX                            <
>     VSB    - VISIBILITY IN MILES                         <
>     HX     - HEAT INDEX                                  <
>     TC     - TEMPERATURE IN CELSIUS                      <
>     VRB    - VARIABLE WIND DIRECTION                     <
>                                                          <
>>>>>>>>>>>>>>>>>>>>>>>>>>>> KEY <<<<<<<<<<<<<<<<<<<<<<<<<<<





USA.gov is the U.S. government's official web portal to all federal, state and local government web resources and services.